| time (UTC) | temp C | wind direction | speed KPH | gust KPH | rain 1hr cm | rain 24hr cm | rain mn cm | humidity % | barometer mb |
| 20260902014604 | 27 | 0 | 0.0 | 4.8 | 0.00 | 0.00 | 0.00 | 68 | 1021.8 |
| 20260902014105 | 27 | 0 | 0.0 | 4.8 | 0.00 | 0.00 | 0.00 | 67 | 1021.8 |
| 20260902013604 | 27 | 0 | 0.0 | 3.2 | 0.00 | 0.00 | 0.00 | 67 | 1021.6 |
| 20260902013104 | 27 | 0 | 0.0 | 4.8 | 0.00 | 0.00 | 0.00 | 66 | 1021.6 |
| 20260902012604 | 27 | 0 | 0.0 | 4.8 | 0.00 | 0.00 | 0.00 | 66 | 1021.6 |
| 20260902012104 | 27 | 0 | 0.0 | 3.2 | 0.00 | 0.00 | 0.00 | 66 | 1021.5 |
| 20260902011604 | 27 | 0 | 0.0 | 1.6 | 0.00 | 0.00 | 0.00 | 65 | 1021.5 |
| 20260902011052 | 27 | 0 | 0.0 | 3.2 | 0.00 | 0.00 | 0.00 | 65 | 1021.4 |
| 20260902005604 | 27 | 0 | 0.0 | 0.0 | 0.00 | 0.00 | 0.00 | 65 | 1021.4 |
| 20260902005104 | 27 | 0 | 0.0 | 0.0 | 0.00 | 0.00 | 0.00 | 65 | 1021.3 |
| 20260902004602 | 28 | 0 | 0.0 | 0.0 | 0.00 | 0.00 | 0.00 | 65 | 1021.3 |
| 20260902004102 | 27 | 0 | 0.0 | 0.0 | 0.00 | 0.00 | 0.00 | 65 | 1021.3 |
| 20260902003602 | 27 | 0 | 0.0 | 0.0 | 0.00 | 0.00 | 0.00 | 65 | 1021.3 |
| 20260902003102 | 27 | 0 | 0.0 | 0.0 | 0.00 | 0.00 | 0.00 | 65 | 1021.3 |
| 20260902002602 | 27 | 0 | 0.0 | 0.0 | 0.00 | 0.00 | 0.00 | 66 | 1021.3 |
| 20260902002103 | 27 | 0 | 0.0 | 0.0 | 0.00 | 0.00 | 0.00 | 67 | 1021.2 |
| 20260902001602 | 27 | 0 | 0.0 | 0.0 | 0.00 | 0.00 | 0.00 | 67 | 1021.3 |
| 20260902000650 | 27 | 0 | 0.0 | 1.6 | 0.00 | 0.00 | 0.00 | 67 | 1021.3 |
| 20260902000150 | 27 | 0 | 0.0 | 1.6 | 0.00 | 0.00 | 0.00 | 67 | 1021.3 |
| 20260901235650 | 28 | 0 | 0.0 | 0.0 | 0.00 | 0.00 | 0.00 | 67 | 1021.2 |
| 20260901235150 | 28 | 0 | 0.0 | 0.0 | 0.00 | 0.00 | 0.00 | 66 | 1021.2 |
| 20260901234650 | 28 | 0 | 0.0 | 0.0 | 0.00 | 0.00 | 0.00 | 66 | 1021.3 |
| 20260901234150 | 28 | 0 | 0.0 | 0.0 | 0.00 | 0.00 | 0.00 | 66 | 1021.3 |
| 20260901233650 | 28 | 0 | 0.0 | 0.0 | 0.00 | 0.00 | 0.00 | 66 | 1021.4 |
| 20260901233151 | 28 | 0 | 0.0 | 0.0 | 0.00 | 0.00 | 0.00 | 67 | 1021.4 |
| 20260901232650 | 28 | 0 | 0.0 | 0.0 | 0.00 | 0.00 | 0.00 | 67 | 1021.4 |
| 20260901232150 | 28 | 0 | 0.0 | 0.0 | 0.00 | 0.00 | 0.00 | 67 | 1021.5 |
| 20260901231650 | 28 | 0 | 0.0 | 0.0 | 0.00 | 0.00 | 0.00 | 68 | 1021.5 |
| 20260901231150 | 28 | 0 | 0.0 | 1.6 | 0.00 | 0.00 | 0.00 | 69 | 1021.6 |
| 20260901230650 | 28 | 0 | 0.0 | 1.6 | 0.00 | 0.00 | 0.00 | 68 | 1021.6 |
| 20260901230150 | 28 | 0 | 0.0 | 3.2 | 0.00 | 0.00 | 0.00 | 66 | 1021.6 |
| 20260901225650 | 28 | 0 | 0.0 | 3.2 | 0.00 | 0.00 | 0.00 | 66 | 1021.7 |
| 20260901225107 | 29 | 0 | 0.0 | 0.0 | 0.00 | 0.00 | 0.00 | 66 | 1021.7 |
| 20260901224553 | 29 | 0 | 0.0 | 4.8 | 0.00 | 0.00 | 0.00 | 64 | 1021.7 |
| 20260901223755 | 29 | 0 | 0.0 | 4.8 | 0.00 | 0.00 | 0.00 | 64 | 1021.8 |
| 20260901223253 | 29 | 0 | 0.0 | 6.4 | 0.00 | 0.00 | 0.00 | 64 | 1021.7 |
| 20260901222753 | 29 | 0 | 0.0 | 6.4 | 0.00 | 0.00 | 0.00 | 63 | 1021.7 |
| 20260901222258 | 29 | 0 | 0.0 | 3.2 | 0.00 | 0.00 | 0.00 | 63 | 1021.7 |
| 20260901221753 | 29 | 0 | 0.0 | 4.8 | 0.00 | 0.00 | 0.00 | 63 | 1021.5 |
| 20260901221253 | 30 | 0 | 0.0 | 14.5 | 0.00 | 0.00 | 0.00 | 61 | 1021.7 |
| 20260901220753 | 30 | 328 | 1.6 | 14.5 | 0.00 | 0.00 | 0.00 | 60 | 1021.7 |
| 20260901220253 | 30 | 328 | 1.6 | 4.8 | 0.00 | 0.00 | 0.00 | 60 | 1021.7 |
| 20260901215753 | 30 | 0 | 0.0 | 8.0 | 0.00 | 0.00 | 0.00 | 60 | 1021.7 |
| 20260901215256 | 30 | 328 | 1.6 | 8.0 | 0.00 | 0.00 | 0.00 | 60 | 1021.7 |
| 20260901214753 | 30 | 0 | 0.0 | 9.7 | 0.00 | 0.00 | 0.00 | 60 | 1021.7 |
| 20260901214253 | 30 | 328 | 1.6 | 9.7 | 0.00 | 0.00 | 0.00 | 59 | 1021.7 |
| 20260901213755 | 30 | 328 | 1.6 | 6.4 | 0.00 | 0.00 | 0.00 | 59 | 1021.6 |
| 20260901213255 | 30 | 328 | 1.6 | 6.4 | 0.00 | 0.00 | 0.00 | 59 | 1021.6 |
| 20260901212753 | 30 | 0 | 0.0 | 8.0 | 0.00 | 0.00 | 0.00 | 59 | 1021.6 |
| 20260901212253 | 30 | 328 | 1.6 | 8.0 | 0.00 | 0.00 | 0.00 | 58 | 1021.5 |
| 20260901211753 | 30 | 328 | 1.6 | 8.0 | 0.00 | 0.00 | 0.00 | 58 | 1021.6 |
| 20260901211253 | 31 | 328 | 3.2 | 9.7 | 0.00 | 0.00 | 0.00 | 58 | 1021.5 |
| 20260901210753 | 31 | 328 | 3.2 | 16.1 | 0.00 | 0.00 | 0.00 | 59 | 1021.5 |
| 20260901210253 | 31 | 328 | 3.2 | 16.1 | 0.00 | 0.00 | 0.00 | 56 | 1021.6 |
| 20260901205655 | 31 | 0 | 0.0 | 6.4 | 0.00 | 0.00 | 0.00 | 58 | 1021.8 |
| 20260901205155 | 31 | 0 | 0.0 | 6.4 | 0.00 | 0.00 | 0.00 | 59 | 1021.8 |
| 20260901204652 | 30 | 328 | 1.6 | 9.7 | 0.00 | 0.00 | 0.00 | 58 | 1021.9 |
| 20260901204153 | 30 | 328 | 1.6 | 9.7 | 0.00 | 0.00 | 0.00 | 58 | 1021.9 |
| 20260901203653 | 31 | 0 | 0.0 | 9.7 | 0.00 | 0.00 | 0.00 | 57 | 1022.0 |
| 20260901203153 | 31 | 328 | 1.6 | 9.7 | 0.00 | 0.00 | 0.00 | 57 | 1022.1 |
| 20260901202418 | 31 | 328 | 3.2 | 16.1 | 0.00 | 0.00 | 0.00 | 57 | 1022.1 |
| 20260901201918 | 31 | 328 | 1.6 | 16.1 | 0.00 | 0.00 | 0.00 | 57 | 1022.0 |
| 20260901201422 | 31 | 0 | 0.0 | 8.0 | 0.00 | 0.00 | 0.00 | 56 | 1022.0 |
| 20260901200918 | 31 | 0 | 0.0 | 9.7 | 0.00 | 0.00 | 0.00 | 57 | 1022.0 |
| 20260901200422 | 31 | 329 | 1.6 | 9.7 | 0.00 | 0.00 | 0.00 | 56 | 1022.0 |
| 20260901195918 | 31 | 0 | 0.0 | 6.4 | 0.00 | 0.00 | 0.00 | 57 | 1022.1 |
| 20260901195418 | 31 | 0 | 0.0 | 8.0 | 0.00 | 0.00 | 0.00 | 55 | 1022.2 |
| 20260901194918 | 32 | 329 | 1.6 | 8.0 | 0.00 | 0.00 | 0.00 | 53 | 1022.3 |
| 20260901194420 | 32 | 0 | 0.0 | 6.4 | 0.00 | 0.00 | 0.00 | 56 | 1022.2 |
| 20260901193918 | 31 | 0 | 0.0 | 12.9 | 0.00 | 0.00 | 0.00 | 56 | 1022.2 |
| 20260901193418 | 31 | 0 | 0.0 | 12.9 | 0.00 | 0.00 | 0.00 | 54 | 1022.2 |
| 20260901192919 | 31 | 0 | 0.0 | 14.5 | 0.00 | 0.00 | 0.00 | 55 | 1022.2 |
| 20260901192418 | 31 | 0 | 0.0 | 14.5 | 0.00 | 0.00 | 0.00 | 55 | 1022.4 |
| 20260901191918 | 31 | 0 | 0.0 | 4.8 | 0.00 | 0.00 | 0.00 | 55 | 1022.4 |
| 20260901191418 | 31 | 329 | 1.6 | 9.7 | 0.00 | 0.00 | 0.00 | 54 | 1022.5 |
| 20260901190918 | 31 | 329 | 1.6 | 9.7 | 0.00 | 0.00 | 0.00 | 56 | 1022.5 |
| 20260901190418 | 31 | 329 | 1.6 | 8.0 | 0.00 | 0.00 | 0.00 | 57 | 1022.7 |
| 20260901185918 | 30 | 329 | 3.2 | 9.7 | 0.00 | 0.00 | 0.00 | 58 | 1022.6 |
| 20260901185418 | 30 | 329 | 3.2 | 14.5 | 0.00 | 0.00 | 0.00 | 55 | 1022.6 |
| 20260901184918 | 31 | 329 | 3.2 | 19.3 | 0.00 | 0.00 | 0.00 | 56 | 1022.7 |
| 20260901184418 | 31 | 324 | 6.4 | 19.3 | 0.00 | 0.00 | 0.00 | 55 | 1022.7 |
| 20260901183918 | 31 | 324 | 1.6 | 9.7 | 0.00 | 0.00 | 0.00 | 56 | 1022.7 |
| 20260901183418 | 31 | 323 | 1.6 | 9.7 | 0.00 | 0.00 | 0.00 | 58 | 1022.7 |
| 20260901182918 | 30 | 0 | 0.0 | 19.3 | 0.00 | 0.00 | 0.00 | 60 | 1022.8 |
| 20260901182418 | 30 | 324 | 4.8 | 19.3 | 0.00 | 0.00 | 0.00 | 58 | 1022.8 |
| 20260901181920 | 30 | 323 | 4.8 | 12.9 | 0.00 | 0.00 | 0.00 | 56 | 1022.8 |
| 20260901181418 | 30 | 323 | 3.2 | 19.3 | 0.00 | 0.00 | 0.00 | 58 | 1022.8 |
| 20260901180923 | 30 | 323 | 3.2 | 19.3 | 0.00 | 0.00 | 0.00 | 60 | 1022.8 |
| 20260901180418 | 30 | 323 | 3.2 | 14.5 | 0.00 | 0.00 | 0.00 | 59 | 1022.9 |
| 20260901175918 | 31 | 321 | 3.2 | 12.9 | 0.00 | 0.00 | 0.00 | 58 | 1022.9 |
| 20260901175418 | 30 | 321 | 1.6 | 9.7 | 0.00 | 0.00 | 0.00 | 59 | 1022.9 |
| 20260901174918 | 30 | 0 | 0.0 | 16.1 | 0.00 | 0.00 | 0.00 | 61 | 1022.9 |
| 20260901174418 | 30 | 322 | 1.6 | 16.1 | 0.00 | 0.00 | 0.00 | 60 | 1023.0 |
| 20260901173918 | 30 | 320 | 1.6 | 12.9 | 0.00 | 0.00 | 0.00 | 60 | 1023.0 |
| 20260901173418 | 30 | 320 | 1.6 | 12.9 | 0.00 | 0.00 | 0.00 | 60 | 1022.9 |
| 20260901172918 | 30 | 0 | 0.0 | 16.1 | 0.00 | 0.00 | 0.00 | 61 | 1023.0 |
| 20260901172418 | 30 | 320 | 3.2 | 16.1 | 0.00 | 0.00 | 0.00 | 60 | 1023.0 |
| 20260901171919 | 30 | 319 | 3.2 | 12.9 | 0.00 | 0.00 | 0.00 | 60 | 1023.1 |
| 20260901171418 | 30 | 319 | 3.2 | 12.9 | 0.00 | 0.00 | 0.00 | 62 | 1023.0 |
| 20260901170918 | 30 | 319 | 1.6 | 9.7 | 0.00 | 0.00 | 0.00 | 61 | 1023.1 |
| 20260901170802 | 29 | 0 | 0.0 | 14.5 | 0.00 | 0.00 | 0.00 | 62 | 1023.4 |
| 20260901170759 | 29 | 316 | 1.6 | 16.1 | 0.00 | 0.00 | 0.00 | 63 | 1023.5 |
| 20260901170756 | 29 | 315 | 1.6 | 16.1 | 0.00 | 0.00 | 0.00 | 61 | 1023.5 |
| 20260901170418 | 30 | 319 | 3.2 | 9.7 | 0.00 | 0.00 | 0.00 | 60 | 1023.1 |
| 20260901165918 | 30 | 319 | 3.2 | 9.7 | 0.00 | 0.00 | 0.00 | 62 | 1023.1 |
| 20260901165418 | 30 | 319 | 1.6 | 9.7 | 0.00 | 0.00 | 0.00 | 62 | 1023.2 |
| 20260901164919 | 30 | 319 | 1.6 | 16.1 | 0.00 | 0.00 | 0.00 | 62 | 1023.3 |
| 20260901164418 | 30 | 318 | 4.8 | 16.1 | 0.00 | 0.00 | 0.00 | 61 | 1023.3 |
| 20260901163918 | 29 | 0 | 0.0 | 14.5 | 0.00 | 0.00 | 0.00 | 62 | 1023.4 |
| 20260901163327 | 29 | 316 | 1.6 | 16.1 | 0.00 | 0.00 | 0.00 | 63 | 1023.5 |
| 20260901162827 | 29 | 315 | 1.6 | 16.1 | 0.00 | 0.00 | 0.00 | 61 | 1023.5 |
| 20260901162505 | 27 | 0 | 0.0 | 12.9 | 0.00 | 0.00 | 0.00 | 71 | 1024.0 |
| 20260901162327 | 30 | 0 | 0.0 | 6.4 | 0.00 | 0.00 | 0.00 | 63 | 1023.5 |
| 20260901161827 | 29 | 0 | 0.0 | 9.7 | 0.00 | 0.00 | 0.00 | 65 | 1023.6 |
| 20260901161327 | 29 | 313 | 3.2 | 9.7 | 0.00 | 0.00 | 0.00 | 63 | 1023.6 |
| 20260901160828 | 29 | 0 | 0.0 | 8.0 | 0.00 | 0.00 | 0.00 | 67 | 1023.7 |
| 20260901160327 | 29 | 313 | 3.2 | 8.0 | 0.00 | 0.00 | 0.00 | 66 | 1023.8 |
| 20260901155827 | 29 | 0 | 0.0 | 8.0 | 0.00 | 0.00 | 0.00 | 67 | 1023.7 |
| 20260901155327 | 29 | 0 | 0.0 | 4.8 | 0.00 | 0.00 | 0.00 | 65 | 1023.7 |
| 20260901154827 | 29 | 0 | 0.0 | 4.8 | 0.00 | 0.00 | 0.00 | 67 | 1023.7 |
| 20260901154327 | 28 | 0 | 0.0 | 4.8 | 0.00 | 0.00 | 0.00 | 69 | 1023.7 |
| 20260901153827 | 28 | 0 | 0.0 | 4.8 | 0.00 | 0.00 | 0.00 | 71 | 1023.8 |
| 20260901153327 | 28 | 0 | 0.0 | 6.4 | 0.00 | 0.00 | 0.00 | 72 | 1024.0 |
| 20260901152827 | 28 | 0 | 0.0 | 6.4 | 0.00 | 0.00 | 0.00 | 70 | 1023.9 |
| 20260901152327 | 28 | 0 | 0.0 | 6.4 | 0.00 | 0.00 | 0.00 | 71 | 1024.0 |
| 20260901151827 | 27 | 0 | 0.0 | 12.9 | 0.00 | 0.00 | 0.00 | 71 | 1024.0 |
| 20260901151327 | 27 | 0 | 0.0 | 12.9 | 0.00 | 0.00 | 0.00 | 70 | 1024.0 |
| 20260901150827 | 27 | 0 | 0.0 | 9.7 | 0.00 | 0.00 | 0.00 | 71 | 1024.0 |
| 20260901150327 | 27 | 313 | 1.6 | 9.7 | 0.00 | 0.00 | 0.00 | 69 | 1024.1 |
| 20260901145827 | 27 | 0 | 0.0 | 14.5 | 0.00 | 0.00 | 0.00 | 70 | 1024.1 |
| 20260901145327 | 27 | 313 | 1.6 | 14.5 | 0.00 | 0.00 | 0.00 | 70 | 1024.1 |
| 20260901144827 | 27 | 0 | 0.0 | 8.0 | 0.00 | 0.00 | 0.00 | 70 | 1024.2 |
| 20260901144330 | 27 | 313 | 1.6 | 8.0 | 0.00 | 0.00 | 0.00 | 70 | 1024.3 |
| 20260901144129 | 27 | 313 | 1.6 | 12.9 | 0.00 | 0.00 | 0.00 | 71 | 1024.3 |
| 20260901143828 | 27 | 313 | 1.6 | 12.9 | 0.00 | 0.00 | 0.00 | 71 | 1024.3 |
| 20260901143621 | 27 | 313 | 1.6 | 12.9 | 0.00 | 0.00 | 0.00 | 69 | 1024.3 |
| 20260901143327 | 27 | 313 | 1.6 | 12.9 | 0.00 | 0.00 | 0.00 | 69 | 1024.3 |
| 20260901142915 | 27 | 313 | 1.6 | 8.0 | 0.00 | 0.00 | 0.00 | 70 | 1024.3 |
| 20260901142827 | 27 | 313 | 1.6 | 8.0 | 0.00 | 0.00 | 0.00 | 70 | 1024.3 |
| 20260901142327 | 27 | 313 | 1.6 | 8.0 | 0.00 | 0.00 | 0.00 | 71 | 1024.3 |
| 20260901141828 | 26 | 0 | 0.0 | 8.0 | 0.00 | 0.00 | 0.00 | 70 | 1024.3 |
| 20260901141327 | 27 | 0 | 0.0 | 6.4 | 0.00 | 0.00 | 0.00 | 70 | 1024.2 |
| 20260901140827 | 26 | 0 | 0.0 | 6.4 | 0.00 | 0.00 | 0.00 | 70 | 1024.2 |
| 20260901140327 | 27 | 0 | 0.0 | 6.4 | 0.00 | 0.00 | 0.00 | 68 | 1024.1 |
| 20260901135827 | 27 | 0 | 0.0 | 4.8 | 0.00 | 0.00 | 0.00 | 68 | 1024.1 |
| 20260901135528 | 26 | 0 | 0.0 | 4.8 | 0.00 | 0.00 | 0.00 | 70 | 1024.1 |
| 20260901135228 | 26 | 0 | 0.0 | 4.8 | 0.00 | 0.00 | 0.00 | 70 | 1024.1 |
| 20260901134603 | 26 | 0 | 0.0 | 4.8 | 0.00 | 0.00 | 0.00 | 71 | 1024.1 |
| 20260901134536 | 26 | 0 | 0.0 | 4.8 | 0.00 | 0.00 | 0.00 | 71 | 1024.1 |
| 20260901134103 | 26 | 0 | 0.0 | 4.8 | 0.00 | 0.00 | 0.00 | 71 | 1024.1 |
| 20260901133902 | 26 | 0 | 0.0 | 3.2 | 0.00 | 0.00 | 0.00 | 72 | 1024.0 |
| 20260901133603 | 26 | 0 | 0.0 | 3.2 | 0.00 | 0.00 | 0.00 | 71 | 1024.1 |
| 20260901133103 | 26 | 0 | 0.0 | 3.2 | 0.00 | 0.00 | 0.00 | 71 | 1024.0 |
| 20260901132603 | 26 | 0 | 0.0 | 3.2 | 0.00 | 0.00 | 0.00 | 72 | 1024.0 |
| 20260901132112 | 26 | 0 | 0.0 | 3.2 | 0.00 | 0.00 | 0.00 | 73 | 1024.0 |
| 20260901131605 | 26 | 0 | 0.0 | 4.8 | 0.00 | 0.00 | 0.00 | 74 | 1024.0 |
| 20260901131103 | 26 | 0 | 0.0 | 4.8 | 0.00 | 0.00 | 0.00 | 74 | 1024.1 |
| 20260901130603 | 25 | 0 | 0.0 | 3.2 | 0.00 | 0.00 | 0.00 | 75 | 1024.1 |
| 20260901130148 | 25 | 0 | 0.0 | 0.0 | 0.00 | 0.00 | 0.00 | 75 | 1024.0 |
| 20260901130105 | 25 | 0 | 0.0 | 0.0 | 0.00 | 0.00 | 0.00 | 75 | 1024.0 |
| 20260901125603 | 25 | 0 | 0.0 | 0.0 | 0.00 | 0.00 | 0.00 | 75 | 1024.0 |
| 20260901125103 | 25 | 0 | 0.0 | 0.0 | 0.00 | 0.00 | 0.00 | 75 | 1024.0 |
| 20260901124603 | 25 | 0 | 0.0 | 0.0 | 0.00 | 0.00 | 0.00 | 76 | 1024.0 |
| 20260901124538 | 24 | 0 | 0.0 | 0.0 | 0.00 | 0.00 | 0.00 | 77 | 1024.0 |
| 20260901124110 | 25 | 0 | 0.0 | 0.0 | 0.00 | 0.00 | 0.00 | 76 | 1024.1 |
| 20260901123605 | 25 | 0 | 0.0 | 0.0 | 0.00 | 0.00 | 0.00 | 76 | 1024.0 |
| 20260901123103 | 24 | 0 | 0.0 | 0.0 | 0.00 | 0.00 | 0.00 | 78 | 1024.0 |
| 20260901122603 | 24 | 0 | 0.0 | 0.0 | 0.00 | 0.00 | 0.00 | 77 | 1024.0 |
| 20260901122103 | 24 | 0 | 0.0 | 0.0 | 0.00 | 0.00 | 0.00 | 77 | 1024.0 |
| 20260901121606 | 25 | 0 | 0.0 | 4.8 | 0.00 | 0.00 | 0.00 | 76 | 1023.9 |
| 20260901121111 | 25 | 0 | 0.0 | 4.8 | 0.00 | 0.00 | 0.00 | 75 | 1023.8 |
| 20260901120604 | 25 | 0 | 0.0 | 0.0 | 0.00 | 0.00 | 0.00 | 74 | 1023.7 |
| 20260901120103 | 24 | 0 | 0.0 | 0.0 | 0.00 | 0.00 | 0.00 | 74 | 1023.7 |
| 20260901115605 | 24 | 0 | 0.0 | 0.0 | 0.00 | 0.00 | 0.00 | 74 | 1023.6 |
| 20260901115106 | 24 | 0 | 0.0 | 0.0 | 0.00 | 0.00 | 0.00 | 74 | 1023.6 |
| 20260901114603 | 24 | 0 | 0.0 | 0.0 | 0.00 | 0.00 | 0.00 | 74 | 1023.5 |
| 20260901114103 | 24 | 0 | 0.0 | 0.0 | 0.00 | 0.00 | 0.00 | 75 | 1023.5 |
| 20260901113603 | 24 | 0 | 0.0 | 0.0 | 0.00 | 0.00 | 0.00 | 76 | 1023.4 |
| 20260901113103 | 24 | 0 | 0.0 | 0.0 | 0.00 | 0.00 | 0.00 | 76 | 1023.3 |
| 20260901112609 | 24 | 0 | 0.0 | 0.0 | 0.00 | 0.00 | 0.00 | 76 | 1023.2 |
| 20260901112103 | 24 | 0 | 0.0 | 0.0 | 0.00 | 0.00 | 0.00 | 76 | 1023.2 |
| 20260901111405 | 24 | 0 | 0.0 | 4.8 | 0.00 | 0.00 | 0.00 | 76 | 1023.1 |
| 20260901110904 | 24 | 0 | 0.0 | 4.8 | 0.00 | 0.00 | 0.00 | 76 | 1023.2 |
| 20260901110134 | 23 | 313 | 3.2 | 6.4 | 0.00 | 0.00 | 0.00 | 76 | 1023.0 |
| 20260901105636 | 23 | 313 | 3.2 | 8.0 | 0.00 | 0.00 | 0.00 | 76 | 1023.0 |
| 20260901105137 | 23 | 313 | 4.8 | 8.0 | 0.00 | 0.00 | 0.00 | 76 | 1023.0 |
| 20260901104634 | 23 | 313 | 4.8 | 8.0 | 0.00 | 0.00 | 0.00 | 76 | 1023.0 |
| 20260901104134 | 24 | 313 | 4.8 | 8.0 | 0.00 | 0.00 | 0.00 | 76 | 1022.9 |
| 20260901103634 | 24 | 313 | 4.8 | 6.4 | 0.00 | 0.00 | 0.00 | 76 | 1022.9 |
| 20260901103134 | 24 | 313 | 3.2 | 6.4 | 0.00 | 0.00 | 0.00 | 75 | 1022.8 |
| 20260901102634 | 24 | 313 | 3.2 | 4.8 | 0.00 | 0.00 | 0.00 | 75 | 1022.7 |
| 20260901102134 | 24 | 0 | 0.0 | 0.0 | 0.00 | 0.00 | 0.00 | 75 | 1022.8 |
| 20260901101635 | 24 | 0 | 0.0 | 0.0 | 0.00 | 0.00 | 0.00 | 75 | 1022.8 |
| 20260901101135 | 24 | 0 | 0.0 | 0.0 | 0.00 | 0.00 | 0.00 | 75 | 1022.7 |
| 20260901100640 | 24 | 0 | 0.0 | 0.0 | 0.00 | 0.00 | 0.00 | 75 | 1022.8 |
| 20260901100137 | 24 | 0 | 0.0 | 0.0 | 0.00 | 0.00 | 0.00 | 76 | 1022.7 |
| 20260901095634 | 24 | 0 | 0.0 | 0.0 | 0.00 | 0.00 | 0.00 | 75 | 1022.7 |
| 20260901095135 | 24 | 0 | 0.0 | 0.0 | 0.00 | 0.00 | 0.00 | 75 | 1022.7 |
| 20260901094634 | 25 | 0 | 0.0 | 0.0 | 0.00 | 0.00 | 0.00 | 75 | 1022.7 |
| 20260901094136 | 24 | 0 | 0.0 | 0.0 | 0.00 | 0.00 | 0.00 | 75 | 1022.7 |
| 20260901093635 | 24 | 0 | 0.0 | 0.0 | 0.00 | 0.00 | 0.00 | 75 | 1022.7 |
| 20260901093134 | 24 | 0 | 0.0 | 0.0 | 0.00 | 0.00 | 0.00 | 75 | 1022.7 |
| 20260901092634 | 24 | 0 | 0.0 | 0.0 | 0.00 | 0.00 | 0.00 | 75 | 1022.7 |
| 20260901092138 | 24 | 0 | 0.0 | 0.0 | 0.00 | 0.00 | 0.00 | 76 | 1022.8 |
| 20260901091634 | 23 | 0 | 0.0 | 0.0 | 0.00 | 0.00 | 0.00 | 77 | 1022.8 |
| 20260901091134 | 23 | 0 | 0.0 | 0.0 | 0.00 | 0.00 | 0.00 | 77 | 1022.8 |
| 20260901090634 | 23 | 0 | 0.0 | 0.0 | 0.00 | 0.00 | 0.00 | 77 | 1022.9 |
| 20260901090135 | 23 | 0 | 0.0 | 0.0 | 0.00 | 0.00 | 0.00 | 78 | 1022.8 |
| 20260901085634 | 23 | 0 | 0.0 | 0.0 | 0.00 | 0.00 | 0.00 | 78 | 1022.8 |
| 20260901085134 | 23 | 0 | 0.0 | 0.0 | 0.00 | 0.00 | 0.00 | 79 | 1022.9 |
| 20260901084635 | 23 | 0 | 0.0 | 0.0 | 0.00 | 0.00 | 0.00 | 79 | 1022.8 |
| 20260901084134 | 23 | 0 | 0.0 | 0.0 | 0.00 | 0.00 | 0.00 | 78 | 1022.8 |
| 20260901083634 | 23 | 0 | 0.0 | 0.0 | 0.00 | 0.00 | 0.00 | 78 | 1022.8 |
| 20260901083134 | 23 | 0 | 0.0 | 0.0 | 0.00 | 0.00 | 0.00 | 78 | 1022.8 |
| 20260901082635 | 23 | 0 | 0.0 | 6.4 | 0.00 | 0.00 | 0.00 | 78 | 1022.7 |
| 20260901082135 | 23 | 0 | 0.0 | 8.0 | 0.00 | 0.00 | 0.00 | 77 | 1022.8 |
| 20260901081634 | 24 | 313 | 4.8 | 8.0 | 0.00 | 0.00 | 0.00 | 76 | 1022.9 |
| 20260901081135 | 24 | 0 | 0.0 | 0.0 | 0.00 | 0.00 | 0.00 | 75 | 1022.9 |
| 20260901080634 | 24 | 0 | 0.0 | 0.0 | 0.00 | 0.00 | 0.00 | 75 | 1022.8 |
| 20260901080134 | 24 | 0 | 0.0 | 0.0 | 0.00 | 0.00 | 0.00 | 76 | 1022.9 |
| 20260901075634 | 24 | 0 | 0.0 | 0.0 | 0.00 | 0.00 | 0.00 | 75 | 1023.0 |
| 20260901075134 | 24 | 0 | 0.0 | 0.0 | 0.00 | 0.00 | 0.00 | 75 | 1022.9 |
| 20260901074634 | 24 | 0 | 0.0 | 0.0 | 0.00 | 0.00 | 0.00 | 75 | 1022.9 |
| 20260901074135 | 24 | 0 | 0.0 | 0.0 | 0.00 | 0.00 | 0.00 | 75 | 1023.0 |
| 20260901073634 | 24 | 0 | 0.0 | 3.2 | 0.00 | 0.00 | 0.00 | 75 | 1023.0 |
| 20260901073134 | 24 | 0 | 0.0 | 4.8 | 0.00 | 0.00 | 0.00 | 75 | 1023.1 |
| 20260901072635 | 24 | 313 | 1.6 | 4.8 | 0.00 | 0.00 | 0.00 | 75 | 1023.0 |
| 20260901072135 | 24 | 313 | 1.6 | 8.0 | 0.00 | 0.00 | 0.00 | 75 | 1023.1 |
| 20260901071635 | 24 | 313 | 3.2 | 8.0 | 0.00 | 0.00 | 0.00 | 75 | 1023.2 |
| 20260901071134 | 24 | 313 | 3.2 | 8.0 | 0.00 | 0.00 | 0.00 | 75 | 1023.2 |
| 20260901070635 | 24 | 313 | 3.2 | 8.0 | 0.00 | 0.00 | 0.00 | 75 | 1023.3 |
| 20260901070308 | 25 | 313 | 3.2 | 8.0 | 0.00 | 0.00 | 0.00 | 75 | 1023.3 |
| 20260901070134 | 25 | 313 | 3.2 | 8.0 | 0.00 | 0.00 | 0.00 | 75 | 1023.3 |
| 20260901065634 | 25 | 313 | 3.2 | 6.4 | 0.00 | 0.00 | 0.00 | 74 | 1023.2 |
| 20260901065134 | 25 | 0 | 0.0 | 8.0 | 0.00 | 0.00 | 0.00 | 74 | 1023.3 |
| 20260901064634 | 25 | 0 | 0.0 | 8.0 | 0.00 | 0.00 | 0.00 | 74 | 1023.4 |
| 20260901064134 | 25 | 313 | 1.6 | 4.8 | 0.00 | 0.00 | 0.00 | 75 | 1023.4 |
| 20260901063634 | 25 | 313 | 3.2 | 4.8 | 0.00 | 0.00 | 0.00 | 74 | 1023.5 |
| 20260901063134 | 25 | 313 | 3.2 | 8.0 | 0.00 | 0.00 | 0.00 | 74 | 1023.5 |
| 20260901062635 | 25 | 313 | 3.2 | 8.0 | 0.00 | 0.00 | 0.00 | 74 | 1023.4 |
| 20260901062136 | 25 | 313 | 3.2 | 8.0 | 0.00 | 0.00 | 0.00 | 74 | 1023.4 |
| 20260901061635 | 25 | 313 | 1.6 | 9.7 | 0.00 | 0.00 | 0.00 | 74 | 1023.3 |
| 20260901061138 | 25 | 313 | 3.2 | 9.7 | 0.00 | 0.00 | 0.00 | 74 | 1023.4 |
| 20260901060635 | 25 | 313 | 3.2 | 8.0 | 0.00 | 0.00 | 0.00 | 74 | 1023.5 |
| 20260901060137 | 25 | 313 | 4.8 | 6.4 | 0.00 | 0.00 | 0.00 | 73 | 1023.5 |
| 20260901055635 | 25 | 313 | 3.2 | 6.4 | 0.00 | 0.00 | 0.00 | 73 | 1023.5 |
| 20260901055133 | 25 | 313 | 3.2 | 9.7 | 0.00 | 0.00 | 0.00 | 72 | 1023.6 |
| 20260901054635 | 25 | 0 | 0.0 | 9.7 | 0.00 | 0.00 | 0.00 | 72 | 1023.7 |
| 20260901054135 | 25 | 0 | 0.0 | 9.7 | 0.00 | 0.00 | 0.00 | 73 | 1023.7 |
| 20260901053635 | 25 | 313 | 1.6 | 9.7 | 0.00 | 0.00 | 0.00 | 74 | 1023.7 |
| 20260901053135 | 25 | 313 | 3.2 | 6.4 | 0.00 | 0.00 | 0.00 | 74 | 1023.7 |
| 20260901052634 | 25 | 313 | 3.2 | 8.0 | 0.00 | 0.00 | 0.00 | 74 | 1023.7 |
| 20260901052140 | 25 | 313 | 1.6 | 8.0 | 0.00 | 0.00 | 0.00 | 74 | 1023.8 |
| 20260901051634 | 25 | 313 | 1.6 | 8.0 | 0.00 | 0.00 | 0.00 | 74 | 1023.7 |
| 20260901051138 | 25 | 0 | 0.0 | 6.4 | 0.00 | 0.00 | 0.00 | 74 | 1023.6 |
| 20260901050637 | 25 | 0 | 0.0 | 6.4 | 0.00 | 0.00 | 0.00 | 74 | 1023.8 |
| 20260901050135 | 25 | 313 | 1.6 | 4.8 | 0.00 | 0.00 | 0.00 | 74 | 1023.7 |
| 20260901045635 | 25 | 0 | 0.0 | 4.8 | 0.00 | 0.00 | 0.00 | 74 | 1023.7 |
| 20260901045135 | 25 | 0 | 0.0 | 4.8 | 0.00 | 0.00 | 0.00 | 75 | 1023.7 |
| 20260901044635 | 25 | 0 | 0.0 | 8.0 | 0.00 | 0.00 | 0.00 | 75 | 1023.6 |
| 20260901044135 | 25 | 313 | 1.6 | 8.0 | 0.00 | 0.00 | 0.00 | 75 | 1023.6 |
| 20260901043634 | 25 | 313 | 3.2 | 8.0 | 0.00 | 0.00 | 0.00 | 75 | 1023.6 |
| 20260901043136 | 25 | 313 | 1.6 | 8.0 | 0.00 | 0.00 | 0.00 | 74 | 1023.6 |
| 20260901042635 | 25 | 0 | 0.0 | 8.0 | 0.00 | 0.00 | 0.00 | 74 | 1023.6 |
| 20260901042522 | 25 | 0 | 0.0 | 6.4 | 0.00 | 0.00 | 0.00 | 74 | 1023.7 |
| 20260901042134 | 25 | 0 | 0.0 | 8.0 | 0.00 | 0.00 | 0.00 | 73 | 1023.6 |
| 20260901041633 | 25 | 0 | 0.0 | 6.4 | 0.00 | 0.00 | 0.00 | 74 | 1023.7 |
| 20260901041136 | 25 | 0 | 0.0 | 1.6 | 0.00 | 0.00 | 0.00 | 74 | 1023.6 |
| 20260901040635 | 25 | 0 | 0.0 | 1.6 | 0.00 | 0.00 | 0.00 | 73 | 1023.5 |
| 20260901040134 | 25 | 0 | 0.0 | 3.2 | 0.00 | 0.00 | 0.00 | 73 | 1023.6 |
| 20260901035634 | 25 | 0 | 0.0 | 3.2 | 0.00 | 0.00 | 0.00 | 74 | 1023.6 |
| 20260901035134 | 25 | 0 | 0.0 | 1.6 | 0.00 | 0.00 | 0.00 | 74 | 1023.6 |
| 20260901034633 | 25 | 0 | 0.0 | 3.2 | 0.00 | 0.00 | 0.00 | 74 | 1023.6 |
| 20260901034134 | 25 | 0 | 0.0 | 4.8 | 0.00 | 0.00 | 0.00 | 74 | 1023.6 |
| 20260901033633 | 25 | 0 | 0.0 | 4.8 | 0.00 | 0.00 | 0.00 | 75 | 1023.6 |
| 20260901033134 | 25 | 0 | 0.0 | 8.0 | 0.00 | 0.00 | 0.00 | 75 | 1023.6 |
| 20260901032633 | 25 | 313 | 1.6 | 8.0 | 0.00 | 0.00 | 0.00 | 75 | 1023.6 |
| 20260901032133 | 25 | 0 | 0.0 | 6.4 | 0.00 | 0.00 | 0.00 | 76 | 1023.6 |
| 20260901031633 | 25 | 313 | 1.6 | 6.4 | 0.00 | 0.00 | 0.00 | 77 | 1023.7 |
| 20260901031133 | 25 | 313 | 1.6 | 8.0 | 0.00 | 0.00 | 0.00 | 77 | 1023.8 |
| 20260901030633 | 25 | 313 | 3.2 | 12.9 | 0.00 | 0.00 | 0.00 | 77 | 1023.8 |
| 20260901030134 | 25 | 313 | 3.2 | 12.9 | 0.00 | 0.00 | 0.00 | 79 | 1023.9 |
| 20260901025634 | 25 | 313 | 3.2 | 9.7 | 0.00 | 0.00 | 0.00 | 80 | 1023.8 |
| 20260901025133 | 25 | 313 | 3.2 | 8.0 | 0.00 | 0.00 | 0.00 | 79 | 1023.8 |
| 20260901024638 | 25 | 313 | 3.2 | 8.0 | 0.00 | 0.00 | 0.00 | 79 | 1023.7 |
| 20260901024133 | 25 | 313 | 3.2 | 6.4 | 0.00 | 0.00 | 0.00 | 78 | 1023.7 |
| 20260901023618 | 25 | 313 | 3.2 | 8.0 | 0.00 | 0.00 | 0.00 | 77 | 1023.7 |
| 20260901023024 | 25 | 313 | 3.2 | 6.4 | 0.00 | 0.00 | 0.00 | 76 | 1023.7 |
| 20260901022158 | 25 | 313 | 3.2 | 8.0 | 0.00 | 0.00 | 0.00 | 73 | 1023.6 |
| 20260901021657 | 25 | 313 | 3.2 | 8.0 | 0.00 | 0.00 | 0.00 | 72 | 1023.6 |
| 20260901021158 | 25 | 313 | 4.8 | 8.0 | 0.00 | 0.00 | 0.00 | 73 | 1023.6 |
| 20260901020657 | 25 | 313 | 3.2 | 12.9 | 0.00 | 0.00 | 0.00 | 76 | 1023.5 |
| 20260901020157 | 25 | 313 | 4.8 | 12.9 | 0.00 | 0.00 | 0.00 | 77 | 1023.5 |
| 20260901015657 | 25 | 313 | 4.8 | 9.7 | 0.00 | 0.00 | 0.00 | 76 | 1023.4 |
| 20260901015205 | 25 | 313 | 6.4 | 9.7 | 0.00 | 0.00 | 0.00 | 76 | 1023.4 |